Location: ActonStarParty
(42.4766°N, 71.4538°W)
Time: 17:26:10
(UTC-04:00)

ATLAS 5 CENTAUR R/B - Visible Passes

Search period start: 31 October 2014 00:00
Search period end: 09 November 2014 23:00
Orbit: 374 x 14897 km, 60.9° (Epoch: 30 October)

Date Brightness Start Highest point End Pass type
(mag) Time Alt. Az. Time Alt. Az. Time Alt. Az.
31 Oct 7.8 00:00:00 61° SSW 00:43:00 84° WNW 01:28:02 10° NE visible
31 Oct 6.3 04:53:27 10° WNW 06:05:39 54° NNE 06:16:58 10° E visible
31 Oct 8.3 18:12:55 10° E 18:50:37 15° ENE 19:17:28 10° NE visible
31 Oct 7.9 21:27:46 10° S 23:30:24 81° ESE 00:20:45 10° NE visible
01 Nov 6.8 03:08:43 10° W 04:54:21 52° N 05:10:01 10° ENE visible
01 Nov 7.9 20:25:50 10° SSE 22:20:39 65° E 23:13:12 10° NE visible
02 Nov 7.2 01:32:32 10° WSW 02:40:43 55° NNW 03:02:50 10° ENE visible
02 Nov 8.0 18:29:07 10° SE 20:13:28 50° E 21:05:07 10° NE visible
02 Nov 7.6 23:09:52 10° SW 01:24:54 63° NW 01:55:32 10° NE visible
03 Nov 5.1 05:56:49 10° NW 06:35:38 81° NE 06:42:51 10° SE visible
03 Nov 8.1 17:39:57 10° SE 19:08:33 36° E 19:56:01 10° NE visible
03 Nov 7.7 21:55:26 10° SSW 00:08:21 74° NW 00:48:12 10° NE visible
04 Nov 5.8 04:32:56 10° WNW 05:27:31 61° NNE 05:36:42 10° ESE visible
04 Nov 8.2 17:01:33 10° ESE 18:05:44 24° ENE 18:44:35 10° NE visible
04 Nov 7.8 20:46:11 10° S 22:53:28 88° WNW 23:40:49 10° NE visible
05 Nov 6.4 02:55:22 10° WNW 04:17:29 53° N 04:29:55 10° E visible
05 Nov 8.3 16:40:52 10° ENE 17:04:56 12° ENE 17:24:02 10° NE visible
05 Nov 7.8 19:41:02 10° S 21:41:27 77° ESE 22:33:16 10° NE visible
06 Nov 6.9 01:10:46 10° W 03:05:18 52° N 03:22:42 10° ENE visible
06 Nov 7.9 18:40:11 10° SSE 20:32:18 61° E 21:25:24 10° NE visible
06 Nov 7.4 23:38:50 10° WSW 01:50:42 57° NNW 02:15:16 10° ENE visible
07 Nov 8.0 17:45:07 10° SE 19:25:39 46° E 20:16:54 10° NE visible
07 Nov 7.6 22:18:54 10° SW 00:34:05 66° NW 01:07:46 10° NE visible
08 Nov 5.3 05:04:38 10° NW 05:47:46 74° NE 05:55:30 10° SE visible
08 Nov 8.1 16:58:27 10° ESE 18:21:15 33° E 19:07:08 10° NE visible
08 Nov 7.7 21:06:02 10° SSW 23:17:26 78° NW 00:00:13 10° NE visible
09 Nov 6.0 03:36:58 10° WNW 04:38:55 58° NNE 04:48:59 10° ESE visible
09 Nov 8.2 16:23:43 10° E 17:18:54 20° ENE 17:54:14 10° NE visible
09 Nov 7.7 19:57:52 10° S 22:03:02 87° ESE 22:52:36 10° NE visible
